[[{"header":{"parameterUnit":"m.s-1","parameterCategory":1,"la1":30.2991,"la2":30.254,"lo1":-89.0895,"lo2":-89.0444,"dy":0.0017,"dx":0.0017,"nx":28,"ny":28,"refTime":"2023-07-28T21:00:00:Z","depth":0,"parameterNumber":2,"parameterNumberName":"U-component_of_WINDS"},"data":[0,0,0,0,0,0,0,0,0,0,0,0,0,0,0,0,0,0,0,0,0,0,0,0,0,0,0,0,0,0,0,0,0,0,0,0,0,0,0,0,0,0,0,0,0,0,0,0,0,0,0,0,0,0,0,0,0,0,-0.0474,-0.0474,0,-0.0447,-0.0447,-0.0447,-0.0422,-0.0422,-0.0422,-0.0421,-0.0391,-0.0391,-0.039,0,0,0,0,0,0,0,0,0,0,0,0,0,-0.0504,-0.0504,-0.0474,-0.0474,-0.0474,-0.0447,-0.0447,-0.0446,-0.0422,-0.0422,-0.0421,-0.0421,-0.0391,-0.0391,-0.039,0,0,0,0,0,0,0,0,0,0,0,0,0,-0.0485,-0.0504,-0.0474,-0.0458,-0.0457,-0.0447,-0.0447,-0.0446,-0.0422,-0.0422,-0.0421,-0.0421,-0.0392,-0.0391,-0.039,-0.0394,0,0,-0.0388,-0.0387,0,0,0,0,0,0,0,0,-0.0487,-0.0484,-0.0461,-0.046,-0.0458,-0.0438,-0.0446,-0.0429,-0.0422,-0.0435,-0.0421,-0.0421,-0.0407,-0.0405,-0.0401,-0.0392,-0.0391,-0.0387,-0.0387,-0.0387,-0.0386,0,0,0,0,0,0,0,-0.0488,-0.0485,-0.0464,-0.0461,-0.0459,-0.0452,-0.0449,-0.0443,-0.0424,-0.0434,-0.0432,-0.043,-0.0406,-0.0401,-0.04,-0.039,-0.0388,-0.0387,-0.0386,-0.0386,-0.0384,-0.0384,0,0,0,0,0,0,-0.0492,-0.0487,-0.0464,-0.0463,-0.0471,-0.0452,-0.0449,-0.0444,-0.0424,-0.042,-0.043,-0.0428,-0.0403,-0.0401,-0.0398,-0.0401,-0.0387,-0.0386,-0.0385,-0.0383,-0.0384,-0.0384,0,0,0,0,0,0,-0.0493,-0.049,-0.0466,-0.0474,-0.0471,-0.0452,-0.0448,-0.0444,-0.044,-0.0421,-0.0417,-0.0429,-0.0403,-0.04,-0.0395,-0.04,-0.0386,-0.0385,-0.0383,-0.0383,-0.0384,-0.0406,0,0,0,0,0,0,-0.0494,-0.0491,-0.0492,-0.0474,-0.047,-0.0463,-0.0448,-0.0444,-0.0439,-0.0436,-0.0419,-0.0415,-0.0402,-0.0396,-0.0394,-0.0398,-0.0384,-0.0382,-0.0383,-0.0384,-0.0405,-0.0408,-0.041,0,0,0,0,0,-0.0495,-0.0499,-0.0492,-0.0489,-0.0472,-0.0463,-0.0461,-0.0446,-0.0439,-0.044,-0.0428,-0.0416,-0.04,-0.0396,-0.0394,-0.0397,-0.0382,-0.0383,-0.0384,-0.0404,-0.0407,-0.041,0,0,0,0,0,0,-0.0516,-0.0496,-0.0488,-0.0487,-0.0477,-0.0459,-0.046,-0.045,-0.0441,-0.0439,-0.0421,-0.0417,-0.0415,-0.0406,-0.0402,-0.04,-0.0389,-0.039,-0.0406,-0.0408,-0.0411,-0.0412,-0.0384,0,0,0,0,0,-0.0521,-0.0516,-0.0499,-0.0499,-0.0495,-0.0479,-0.0474,-0.0464,-0.0453,-0.0448,-0.0436,-0.0425,-0.0417,-0.0412,-0.0404,-0.0404,-0.04,-0.0406,-0.0408,-0.041,-0.041,-0.0409,-0.0412,-0.0387,-0.0387,-0.0387,0,0,-0.053,-0.0519,-0.0517,-0.0503,-0.0495,-0.049,-0.0475,-0.0471,-0.0467,-0.0447,-0.0442,-0.0433,-0.0419,-0.0417,-0.0416,-0.041,-0.0416,-0.0411,-0.0413,-0.0412,-0.0411,-0.0413,-0.0415,-0.0388,-0.0388,-0.0388,0,0,-0.0545,-0.0536,-0.0535,-0.0527,-0.0514,-0.0503,-0.0504,-0.0487,-0.0481,-0.0476,-0.0461,-0.0456,-0.0444,-0.0435,-0.0429,-0.0441,-0.043,-0.0439,-0.0451,-0.0451,-0.0452,-0.0454,-0.0458,-0.046,-0.044,-0.044,-0.044,0,-0.0557,-0.055,-0.0536,-0.0533,-0.0527,-0.0511,-0.051,-0.0502,-0.0487,-0.0484,-0.0478,-0.0462,-0.0452,-0.0447,-0.045,-0.0446,-0.0445,-0.044,-0.0454,-0.0455,-0.0456,-0.046,-0.0461,-0.0441,-0.0441,-0.0441,-0.0441,0,-0.0567,-0.0562,-0.0563,-0.055,-0.0545,-0.0543,-0.0528,-0.0524,-0.0515,-0.0504,-0.05,-0.0487,-0.0477,-0.0475,-0.0465,-0.0469,-0.0466,-0.0457,-0.0446,-0.046,-0.0463,-0.0464,-0.0443,-0.0442,-0.0442,-0.0442,0,0,-0.0592,-0.0572,-0.0573,-0.0567,-0.0552,-0.0548,-0.0545,-0.0536,-0.0533,-0.0524,-0.052,-0.0511,-0.0503,-0.0496,-0.0485,-0.0485,-0.0496,-0.0476,-0.0476,-0.048,-0.0499,-0.0505,-0.0507,-0.0489,-0.0489,-0.0489,-0.05,0,-0.0603,-0.0598,-0.0586,-0.0584,-0.0579,-0.0564,-0.0562,-0.0553,-0.0543,-0.0538,-0.0528,-0.0521,-0.0511,-0.0507,-0.0506,-0.0495,-0.0499,-0.0494,-0.0485,-0.0484,-0.0487,-0.0508,-0.0514,-0.0525,-0.0501,-0.0501,-0.0501,0,-0.0615,-0.0608,-0.0606,-0.0592,-0.059,-0.0588,-0.0578,-0.0574,-0.0563,-0.0556,-0.0549,-0.0538,-0.0534,-0.0525,-0.0519,-0.0516,-0.0512,-0.0506,-0.0506,-0.0503,-0.0493,-0.0506,-0.0528,-0.0529,-0.0503,-0.0503,-0.0503,0,-0.0633,-0.0623,-0.062,-0.0616,-0.06,-0.0599,-0.0592,-0.0581,-0.0576,-0.0568,-0.0565,-0.0556,-0.0551,-0.0544,-0.0531,-0.0526,-0.0526,-0.0516,-0.052,-0.0521,-0.052,-0.052,-0.0541,-0.0519,-0.0519,-0.0519,-0.0519,0,-0.0647,-0.0646,-0.0628,-0.0627,-0.0625,-0.0612,-0.0611,-0.0602,-0.0593,-0.0589,-0.0576,-0.0572,-0.0555,-0.055,-0.054,-0.0536,-0.0534,-0.0528,-0.0525,-0.0529,-0.0529,-0.0525,-0.0523,-0.0519,-0.0519,-0.0519,-0.0519,0,-0.0666,-0.0654,-0.065,-0.0636,-0.0633,-0.0632,-0.062,-0.0618,-0.0608,-0.0604,-0.0602,-0.0587,-0.058,-0.0567,-0.0556,-0.0549,-0.0547,-0.0543,-0.0551,-0.0549,-0.0554,-0.0553,-0.0572,-0.0573,-0.0551,-0.0552,-0.0552,0,-0.0674,-0.0674,-0.066,-0.0657,-0.0651,-0.0646,-0.0641,-0.0628,-0.0624,-0.0612,-0.0611,-0.0603,-0.0596,-0.0586,-0.0574,-0.0566,-0.056,-0.0567,-0.0559,-0.0562,-0.0559,-0.0559,-0.0559,-0.0569,-0.0569,-0.0569,-0.057,0,-0.0691,-0.0685,-0.068,-0.0672,-0.0668,-0.0661,-0.0653,-0.0651,-0.0636,-0.0632,-0.0626,-0.062,-0.061,-0.0602,-0.0592,-0.0585,-0.0574,-0.0573,-0.0573,-0.0576,-0.0581,-0.0578,-0.0555,-0.0572,-0.0572,-0.0572,-0.0571,-0.0571,-0.0704,-0.0703,-0.0693,-0.0687,-0.0681,-0.0674,-0.0672,-0.0663,-0.0657,-0.0648,-0.0641,-0.0635,-0.0624,-0.061,-0.0604,-0.0598,-0.0593,-0.0594,-0.0594,-0.0594,-0.0595,-0.0583,-0.0597,-0.0596,-0.0596,-0.0596,-0.0596,0,-0.0719,-0.0713,-0.0708,-0.0698,-0.0694,-0.0686,-0.0678,-0.0674,-0.0669,-0.0661,-0.0655,-0.0647,-0.064,-0.0628,-0.062,-0.0618,-0.0613,-0.0616,-0.0616,-0.0614,-0.0601,-0.0601,-0.062,-0.062,-0.062,-0.062,-0.062,-0.062,-0.0727,-0.0724,-0.0718,-0.0712,-0.0705,-0.0699,-0.0695,-0.0689,-0.0683,-0.0675,-0.067,-0.0662,-0.0652,-0.0644,-0.0637,-0.0633,-0.063,-0.0635,-0.063,-0.0617,-0.0615,-0.0613,-0.0613,-0.0635,-0.0635,-0.0644,-0.0644,-0.0644]},{"header":{"parameterUnit":"m.s-1","parameterCategory":1,"la1":30.2991,"la2":30.254,"lo1":-89.0895,"lo2":-89.0444,"dy":0.0017,"dx":0.0017,"nx":28,"ny":28,"refTime":"2023-07-28T21:00:00:Z","depth":0,"parameterNumber":3,"parameterNumberName":"V-component_of_WINDS"},"data":[0,0,0,0,0,0,0,0,0,0,0,0,0,0,0,0,0,0,0,0,0,0,0,0,0,0,0,0,0,0,0,0,0,0,0,0,0,0,0,0,0,0,0,0,0,0,0,0,0,0,0,0,0,0,0,0,0,0,0.2307,0.2307,0,0.2249,0.2248,0.2247,0.2235,0.2235,0.2236,0.2236,0.2173,0.2171,0.2169,0,0,0,0,0,0,0,0,0,0,0,0,0,0.2406,0.2404,0.2307,0.2307,0.2306,0.2249,0.2248,0.2247,0.2235,0.2235,0.2236,0.2237,0.2174,0.2171,0.2169,0,0,0,0,0,0,0,0,0,0,0,0,0,0.2357,0.2404,0.2307,0.2293,0.2291,0.2249,0.2248,0.2247,0.2235,0.2235,0.2236,0.2237,0.2175,0.2172,0.2168,0.2135,0,0,0.2159,0.2157,0,0,0,0,0,0,0,0,0.2359,0.2353,0.2296,0.2294,0.2292,0.225,0.2259,0.2209,0.2235,0.2256,0.2236,0.2237,0.2198,0.2193,0.218,0.2133,0.213,0.2159,0.2157,0.2155,0.2154,0,0,0,0,0,0,0,0.2363,0.2355,0.2284,0.2295,0.2292,0.2288,0.2282,0.225,0.2224,0.2254,0.2253,0.2247,0.2197,0.2183,0.2179,0.2129,0.2159,0.2156,0.2154,0.2153,0.2051,0.205,0,0,0,0,0,0,0.2369,0.2358,0.2286,0.2282,0.2328,0.2286,0.2279,0.2263,0.2224,0.2219,0.2246,0.2246,0.2188,0.2182,0.2176,0.2135,0.2155,0.2152,0.2151,0.2052,0.2051,0.205,0,0,0,0,0,0,0.2371,0.2363,0.2288,0.232,0.231,0.2284,0.2265,0.2261,0.2248,0.2218,0.2213,0.2237,0.2189,0.2181,0.2146,0.2133,0.2151,0.2148,0.2052,0.2051,0.205,0.2052,0,0,0,0,0,0,0.2374,0.2364,0.2352,0.232,0.2309,0.2259,0.2264,0.2259,0.2242,0.2242,0.2208,0.2203,0.2189,0.2151,0.2143,0.2129,0.2146,0.2054,0.2052,0.205,0.2053,0.2051,0.205,0,0,0,0,0,0.2378,0.2354,0.2351,0.2342,0.2293,0.2259,0.2252,0.2237,0.2242,0.2229,0.221,0.2204,0.2136,0.2147,0.2138,0.2123,0.2054,0.2052,0.2051,0.2054,0.2052,0.205,0,0,0,0,0,0,0.2384,0.2349,0.2346,0.2311,0.2288,0.2257,0.224,0.2234,0.2209,0.2209,0.219,0.2182,0.2149,0.2132,0.2146,0.2089,0.2095,0.2091,0.2101,0.2098,0.2096,0.2101,0.2143,0,0,0,0,0,0.2381,0.2357,0.2328,0.23,0.2289,0.2267,0.2251,0.2241,0.2216,0.2206,0.2184,0.2159,0.2132,0.2114,0.2087,0.2051,0.2043,0.2036,0.2034,0.2033,0.203,0.2009,0.2005,0.2044,0.2044,0.2044,0,0,0.2375,0.2354,0.2339,0.2301,0.2282,0.2257,0.2258,0.2231,0.2212,0.2201,0.2167,0.2151,0.2121,0.2086,0.2069,0.2071,0.2017,0.203,0.203,0.2027,0.2006,0.2003,0.2,0.2042,0.2043,0.2043,0,0,0.2351,0.2333,0.2308,0.2289,0.226,0.2246,0.224,0.2209,0.2198,0.2164,0.2155,0.2131,0.2085,0.2064,0.2048,0.2016,0.201,0.2008,0.1998,0.1978,0.1975,0.1972,0.1961,0.1957,0.2005,0.2005,0.2005,0,0.2347,0.231,0.2295,0.2269,0.2252,0.2242,0.2216,0.2198,0.2161,0.2149,0.2153,0.2094,0.2074,0.2033,0.2025,0.2013,0.2004,0.2012,0.1977,0.1974,0.1971,0.196,0.1956,0.2005,0.2005,0.2005,0.2005,0,0.2306,0.228,0.2263,0.2229,0.221,0.2184,0.2164,0.2147,0.2139,0.2123,0.2088,0.2064,0.2032,0.2021,0.2013,0.1979,0.1981,0.1981,0.1987,0.1968,0.1957,0.1952,0.2005,0.2005,0.2005,0.2005,0,0,0.2283,0.2243,0.2236,0.2221,0.2189,0.2168,0.2141,0.2111,0.2096,0.2072,0.2048,0.2009,0.2009,0.199,0.1979,0.1961,0.1938,0.1963,0.1962,0.1959,0.1898,0.1899,0.1894,0.1934,0.1933,0.1932,0.1901,0,0.2255,0.2208,0.2194,0.2154,0.2129,0.212,0.2096,0.2074,0.2059,0.2035,0.2018,0.1991,0.1993,0.1981,0.1963,0.1944,0.1925,0.1946,0.1911,0.191,0.1918,0.1888,0.1888,0.1859,0.1896,0.1896,0.1895,0,0.2216,0.2192,0.2149,0.2121,0.211,0.2089,0.206,0.2038,0.2012,0.2002,0.1982,0.1972,0.1943,0.1951,0.191,0.1924,0.1909,0.1897,0.1896,0.1891,0.1901,0.1882,0.185,0.1846,0.1888,0.1889,0.1889,0,0.2203,0.216,0.2129,0.2116,0.2082,0.2068,0.2052,0.2027,0.201,0.1984,0.1973,0.1944,0.1928,0.1905,0.1888,0.1896,0.1848,0.1855,0.1838,0.1839,0.1828,0.1829,0.1793,0.1819,0.1819,0.1819,0.182,0,0.2173,0.2147,0.2123,0.2104,0.2075,0.2059,0.203,0.2014,0.1992,0.1969,0.1958,0.1937,0.1916,0.1891,0.1877,0.1845,0.1838,0.1828,0.1825,0.1829,0.183,0.1818,0.1819,0.1818,0.1819,0.1819,0.1819,0,0.2153,0.2136,0.2102,0.2073,0.2065,0.2045,0.2019,0.2,0.1985,0.1956,0.1948,0.1924,0.1894,0.1875,0.1837,0.1828,0.1793,0.179,0.1802,0.18,0.1785,0.1786,0.1738,0.1731,0.1763,0.1763,0.1763,0,0.2135,0.2115,0.2084,0.2069,0.2054,0.2029,0.2011,0.1995,0.1977,0.1946,0.193,0.19,0.1875,0.1828,0.1807,0.1778,0.1774,0.1759,0.1769,0.1774,0.1773,0.1774,0.1772,0.1757,0.1757,0.1757,0.1757,0,0.2104,0.2097,0.2073,0.2045,0.2025,0.2003,0.198,0.1968,0.1947,0.1927,0.1898,0.1879,0.184,0.1811,0.178,0.1763,0.1756,0.1754,0.1749,0.1752,0.176,0.1755,0.1797,0.1755,0.1755,0.1755,0.1755,0.1755,0.2084,0.2066,0.2042,0.2015,0.1997,0.1976,0.1956,0.1939,0.1915,0.1883,0.1874,0.1843,0.1817,0.1775,0.1758,0.1733,0.1734,0.1727,0.1724,0.1723,0.1722,0.1765,0.1727,0.1727,0.1727,0.1727,0.1727,0,0.2052,0.2036,0.2012,0.1981,0.196,0.1957,0.1932,0.1914,0.1887,0.1864,0.184,0.1806,0.1777,0.1754,0.1724,0.1708,0.1704,0.1701,0.1701,0.1698,0.1723,0.173,0.1704,0.1704,0.1704,0.1704,0.1704,0.1704,0.2033,0.2002,0.1992,0.1952,0.1936,0.1906,0.1892,0.1872,0.1854,0.1817,0.1793,0.1778,0.1755,0.1723,0.1696,0.169,0.1679,0.1676,0.1669,0.1693,0.1696,0.1698,0.1705,0.1674,0.1674,0.1646,0.1646,0.1646]}]]